Location: Zagreb
(45.8000°N, 16.0000°E)
Time: 01:15:52
(UTC+02:00)

S-56A Canister/Altair - Visible Passes

Search period start: 02 October 2020 00:00
Search period end: 12 October 2020 00:00
Orbit: 632 x 2500 km, 38.9° (Epoch: 01 October)

Date Brightness Start Highest point End Pass type
(mag) Time Alt. Az. Time Alt. Az. Time Alt. Az.
02 Oct 10.4 19:21:04 10° W 19:33:59 44° SSW 19:43:34 10° SE visible
02 Oct 10.8 21:30:24 10° W 21:36:53 16° SW 21:42:20 10° SSW visible
03 Oct 10.5 18:47:15 10° W 19:00:49 48° SSW 19:11:06 10° SE visible
03 Oct 10.8 20:55:53 10° W 21:04:08 20° SW 21:10:51 10° S visible
04 Oct 10.9 20:21:35 10° W 20:31:18 24° SW 20:39:05 10° S visible
05 Oct 10.9 19:47:28 10° W 19:58:23 28° SW 20:07:05 10° S visible
06 Oct 11.0 19:13:27 10° W 19:25:22 32° SW 19:34:55 10° SSE visible
07 Oct 11.1 18:39:33 10° W 18:52:15 36° SW 19:02:36 10° SSE visible
07 Oct 11.5 20:52:25 10° WSW 20:54:57 11° WSW 20:57:22 10° SW visible
08 Oct 11.5 20:16:11 10° W 20:22:08 14° SW 20:27:31 10° SSW visible
09 Oct 11.5 19:41:15 10° W 19:49:15 17° SW 19:56:20 10° SSW visible
10 Oct 11.5 19:06:46 10° W 19:16:17 21° SW 19:24:40 10° S visible
11 Oct 11.5 18:32:35 10° W 18:43:14 24° SW 18:52:42 10° S visible
